Regional Weather Roundup
Issued by NWS

Home | Current Version | Previous Version | Text Only | Print | Product List | Glossary On
Versions: 1 2 3 4 5 6 7 8 9 10 11 12 13 14 15 16 17 18 19 20 21 22 23 24 25 26 27 28 29 30 31 32 33 34 35 36 37 38 39 40 41 42 43 44 45 46 47 48 49 50
000
ASUS46 KSTO 251609
RWRCA

NORTHERN AND CENTRAL CA REGIONAL WEATHER ROUNDUP
NATIONAL WEATHER SERVICE SACRAMENTO CA
800 AM PST SUN FEB 25 2018

NOTE: FAIR INDICATES FEW OR NO CLOUDS BELOW 12,000 FEET WITH NO
SIGNIFICANT WEATHER AND/OR OBSTRUCTIONS TO VISIBILITY.

CAZ001-003-251700-
NORTHWEST AREA

CITY           SKY/WX    TMP DP  RH WIND       PRES   REMARKS
CRESCENT CITY  CLOUDY    48  36  63 S15       30.36S
ARCATA         NOT AVBL
SHELTER COVE   NOT AVBL
UKIAH          SUNNY     31  28  89 CALM      30.39R
$$

CAZ006-505>513-251700-
BAY AREA

CITY           SKY/WX    TMP DP  RH WIND       PRES   REMARKS
SANTA ROSA     SUNNY     37  34  89 W3        30.35R
SAN RAFAEL     N/A       39  MM  MM MISG
NAPA           SUNNY     35  33  92 CALM      30.36R
CONCORD        SUNNY     40  35  83 S3        30.36R
OAKLAND CITY   N/A      MM  MM  MM MISG
OAKLAND        MOSUNNY   41  38  89 NE3       30.36R
SAN FRAN CITY  N/A       44  MM  73 MISG
SAN FRAN ARPT  MOSUNNY   44  39  82 CALM      30.36R
LIVERMORE      SUNNY     35  33  92 CALM      30.34S
HAYWARD        SUNNY     42  33  70 E5        30.36R
REDWOOD CITY   N/A       35  MM  92 MISG
MOFFETT ARPT   SUNNY     42  39  89 CALM      30.37R
SAN JOSE ARPT  MOSUNNY   42  38  85 SE3       30.36R
$$
CAZ034-037-514>518-251700-
CENTRAL COAST

CITY           SKY/WX    TMP DP  RH WIND       PRES   REMARKS
WATSONVILLE    SUNNY     39  35  86 N3        30.35S
SALINAS        SUNNY     40  37  89 SE3       30.35R
MONTEREY       SUNNY     43  38  82 E8        30.34R
PT PIEDRAS BLS NOT AVBL
SAN LUIS OBISP SUNNY     51  35  54 SW8       30.28R
SANTA MARIA    SUNNY     51  35  54 NE10      30.27R
$$
CAZ015-016-251700-
NORTHERN SACRAMENTO VALLEY

CITY           SKY/WX    TMP DP  RH WIND       PRES   REMARKS
REDDING        SUNNY     32  27  81 CALM      30.32S
RED BLUFF      SUNNY     34  26  72 W7        30.34S WCI  28
OROVILLE       SUNNY     34  30  85 W7        30.35R WCI  28
$$
CAZ016>018-251700-
SOUTHERN SACRAMENTO VALLEY

CITY           SKY/WX    TMP DP  RH WIND       PRES   REMARKS
AUBURN         SUNNY     39  25  56 CALM      30.29R
BEALE AFB      SUNNY     38  31  77 N8        30.32S WCI  32
LINCOLN        FAIR      34  32  93 N3        30.34R
MARYSVILLE     SUNNY     37  31  78 N5        30.35R WCI  33
SAC INTL ARPT  SUNNY     38  32  79 NW7       30.34R WCI  33
MATHER AIRPORT SUNNY     37  32  81 N7        30.33R WCI  32
DOWNTOWN SAC   N/A       40  MM  MM MISG
SAC EXEC ARPT  SUNNY     40  32  73 N8        30.34R WCI  34
VACAVILLE      SUNNY     43  37  79 CALM      30.35R
TRAVIS AFB     SUNNY     38  37  96 SW9       30.33R WCI  32
$$
CAZ019>021-251700-
SAN JOAQUIN VALLEY

CITY           SKY/WX    TMP DP  RH WIND       PRES   REMARKS
STOCKTON       SUNNY     40  36  86 CALM      30.35R
MODESTO        SUNNY     43  34  70 NW7       30.34R
MERCED         SUNNY     42  35  76 NE3       30.35R
LEMOORE        SUNNY     42  33  70 CALM      30.36R
FRESNO         SUNNY     39  28  64 SE3       30.35R
HANFORD        SUNNY     37  35  92 CALM      30.36R
PORTERVILLE    SUNNY     40  29  64 S6        30.36R
BAKERSFIELD    SUNNY     43  22  43 E5        30.35R
$$
CAZ011-012-071-251700-
NORTHERN MOUNTAINS

CITY           SKY/WX    TMP DP  RH WIND       PRES   REMARKS
YREKA          CLOUDY    29  25  85 S7        30.27S WCI  22
MOUNT SHASTA   CLOUDY    29  23  78 CALM      30.23S
ALTURAS        CLOUDY    21  17  84 CALM      30.22S
$$
CAZ011-012-071-251700-
SIERRA NEVADA MTNS

CITY           SKY/WX    TMP DP  RH WIND       PRES   REMARKS
BLUE CANYON    SUNNY     32  13  45 NE3       30.23R
TRUCKEE        SUNNY      7   3  85 MISG      30.26R
TAHOE VLY ARPT SUNNY      8   4  83 S6        30.23R WCI  -2
MAMMOTH LAKES  FAIR      17   8  69 CALM      30.19S
$$




USA.gov is the U.S. government's official web portal to all federal, state and local government web resources and services.